TimeCDT,TemperatureF,Dew PointF,Humidity,Sea Level PressureIn,VisibilityMPH,Wind Direction,Wind SpeedMPH,Gust SpeedMPH,PrecipitationIn,Events,Conditions,WindDirDegrees,DateUTC
12:13 AM,-0.4,-5.8,78,30.30,10.0,NW,10.4,-,N/A,,Clear,310,2013-03-20 05:13:00
12:33 AM,-0.4,-5.8,78,30.30,10.0,NW,11.5,-,N/A,,Clear,320,2013-03-20 05:33:00
12:53 AM,1.4,-2.2,85,30.30,10.0,NNW,12.7,-,N/A,,Clear,330,2013-03-20 05:53:00
1:13 AM,1.4,-4.0,78,30.30,10.0,NNW,12.7,-,N/A,,Clear,330,2013-03-20 06:13:00
1:33 AM,1.4,-2.2,85,30.30,10.0,NNW,13.8,-,N/A,,Clear,330,2013-03-20 06:33:00
1:53 AM,-0.4,-5.8,78,30.30,10.0,NNW,11.5,-,N/A,,Clear,330,2013-03-20 06:53:00
2:13 AM,-0.4,-5.8,78,30.30,10.0,NW,11.5,-,N/A,,Clear,320,2013-03-20 07:13:00
2:33 AM,-0.4,-5.8,78,30.30,10.0,NNW,15.0,-,N/A,,Clear,330,2013-03-20 07:33:00
2:53 AM,-2.2,-7.6,78,30.30,10.0,NW,9.2,-,N/A,,Clear,320,2013-03-20 07:53:00
3:13 AM,-2.2,-7.6,78,30.31,10.0,NW,11.5,-,N/A,,Clear,310,2013-03-20 08:13:00
3:33 AM,-4.0,-7.6,85,30.31,10.0,NW,16.1,-,N/A,,Clear,320,2013-03-20 08:33:00
3:53 AM,-2.2,-5.8,85,30.30,10.0,NNW,17.3,-,N/A,,Clear,330,2013-03-20 08:53:00
4:13 AM,-2.2,-5.8,85,30.31,10.0,NW,15.0,-,N/A,,Clear,320,2013-03-20 09:13:00
4:33 AM,-2.2,-7.6,78,30.30,10.0,NW,16.1,-,N/A,,Clear,320,2013-03-20 09:33:00
4:53 AM,-0.4,-5.8,78,30.30,10.0,North,12.7,-,N/A,,Clear,350,2013-03-20 09:53:00
5:13 AM,-2.2,-7.6,78,30.30,10.0,NNW,16.1,-,N/A,,Clear,330,2013-03-20 10:13:00
5:33 AM,-0.4,-5.8,78,30.30,10.0,NNW,15.0,-,N/A,,Clear,340,2013-03-20 10:33:00
5:53 AM,-2.2,-7.6,78,30.30,10.0,NNW,15.0,-,N/A,,Clear,330,2013-03-20 10:53:00
6:13 AM,-2.2,-7.6,78,30.31,10.0,NNW,13.8,-,N/A,,Clear,330,2013-03-20 11:13:00
6:33 AM,-2.2,-7.6,78,30.32,10.0,NNW,13.8,-,N/A,,Clear,330,2013-03-20 11:33:00
6:53 AM,-2.2,-7.6,78,30.32,10.0,NW,12.7,-,N/A,,Clear,320,2013-03-20 11:53:00
7:13 AM,-7.6,-11.2,84,30.32,10.0,NW,9.2,-,N/A,,Clear,320,2013-03-20 12:13:00
7:33 AM,-7.6,-11.2,84,30.32,10.0,NW,12.7,-,N/A,,Clear,310,2013-03-20 12:33:00
7:53 AM,-5.8,-11.2,77,30.32,10.0,NW,13.8,-,N/A,,Clear,320,2013-03-20 12:53:00
8:13 AM,-4.0,-9.4,78,30.32,10.0,NNW,12.7,-,N/A,,Clear,330,2013-03-20 13:13:00
8:33 AM,-4.0,-9.4,78,30.32,10.0,NW,10.4,-,N/A,,Clear,310,2013-03-20 13:33:00
8:53 AM,-4.0,-9.4,78,30.32,10.0,NW,10.4,-,N/A,,Clear,320,2013-03-20 13:53:00
9:13 AM,-4.0,-9.4,78,30.32,10.0,NW,8.1,-,N/A,,Clear,310,2013-03-20 14:13:00
9:33 AM,-2.2,-9.4,71,30.31,10.0,NNW,12.7,-,N/A,,Clear,330,2013-03-20 14:33:00
9:53 AM,-2.2,-9.4,71,30.31,10.0,NW,12.7,-,N/A,,Clear,310,2013-03-20 14:53:00
10:13 AM,-2.2,-7.6,78,30.31,10.0,NNW,12.7,-,N/A,,Clear,330,2013-03-20 15:13:00
10:33 AM,-0.4,-7.6,72,30.30,10.0,NW,11.5,-,N/A,,Clear,320,2013-03-20 15:33:00
10:53 AM,-0.4,-5.8,78,30.30,10.0,NW,10.4,-,N/A,,Clear,310,2013-03-20 15:53:00
11:13 AM,-0.4,-5.8,78,30.30,10.0,NW,11.5,-,N/A,,Clear,320,2013-03-20 16:13:00
11:34 AM,1.4,-5.8,72,30.30,10.0,NW,11.5,-,N/A,,Clear,310,2013-03-20 16:34:00
11:53 AM,3.2,-4.0,72,30.29,10.0,NW,13.8,-,N/A,,Clear,310,2013-03-20 16:53:00
12:11 PM,3.2,-2.2,78,30.29,10.0,NW,12.7,-,N/A,,Clear,320,2013-03-20 17:11:00
12:53 PM,6.8,-0.4,72,30.27,10.0,NW,15.0,-,N/A,,Clear,320,2013-03-20 17:53:00
1:13 PM,6.8,-0.4,72,30.27,10.0,NW,12.7,-,N/A,,Clear,320,2013-03-20 18:13:00
1:33 PM,8.6,1.4,73,30.26,10.0,NW,11.5,-,N/A,,Clear,320,2013-03-20 18:33:00
1:53 PM,8.6,1.4,73,30.26,10.0,NW,13.8,-,N/A,,Clear,310,2013-03-20 18:53:00
2:13 PM,8.6,1.4,73,30.25,10.0,NW,13.8,-,N/A,,Clear,310,2013-03-20 19:13:00
2:33 PM,10.4,3.2,73,30.24,10.0,NW,13.8,-,N/A,,Clear,310,2013-03-20 19:33:00
2:53 PM,10.4,3.2,73,30.23,10.0,NW,16.1,-,N/A,,Clear,320,2013-03-20 19:53:00
3:13 PM,12.2,1.4,62,30.23,10.0,NNW,19.6,-,N/A,,Clear,330,2013-03-20 20:13:00
3:33 PM,12.2,1.4,62,30.22,10.0,NNW,18.4,24.2,N/A,,Clear,330,2013-03-20 20:33:00
3:53 PM,12.2,1.4,62,30.22,10.0,NNW,17.3,23.0,N/A,,Clear,340,2013-03-20 20:53:00
4:13 PM,12.2,1.4,62,30.21,10.0,NNW,17.3,21.9,N/A,,Clear,330,2013-03-20 21:13:00
4:33 PM,12.2,3.2,67,30.21,10.0,NNW,17.3,-,N/A,,Clear,330,2013-03-20 21:33:00
4:53 PM,12.2,1.4,62,30.20,10.0,NNW,17.3,-,N/A,,Clear,330,2013-03-20 21:53:00
5:13 PM,12.2,1.4,62,30.20,10.0,NW,19.6,-,N/A,,Clear,320,2013-03-20 22:13:00
5:33 PM,12.2,1.4,62,30.20,10.0,NNW,13.8,-,N/A,,Clear,330,2013-03-20 22:33:00
5:53 PM,12.2,1.4,62,30.19,10.0,NW,16.1,21.9,N/A,,Clear,320,2013-03-20 22:53:00
6:13 PM,12.2,1.4,62,30.19,10.0,NW,12.7,-,N/A,,Clear,320,2013-03-20 23:13:00
6:33 PM,10.4,1.4,67,30.19,10.0,NNW,12.7,-,N/A,,Clear,330,2013-03-20 23:33:00
6:53 PM,10.4,1.4,67,30.19,10.0,NNW,10.4,-,N/A,,Clear,330,2013-03-20 23:53:00
7:13 PM,10.4,1.4,67,30.19,10.0,NW,9.2,-,N/A,,Clear,320,2013-03-21 00:13:00
7:33 PM,8.6,1.4,73,30.19,10.0,NNW,10.4,-,N/A,,Clear,330,2013-03-21 00:33:00
7:54 PM,8.6,-0.4,67,30.19,10.0,NNW,10.4,-,N/A,,Clear,330,2013-03-21 00:54:00
8:13 PM,8.6,-0.4,67,30.18,10.0,NNW,12.7,-,N/A,,Clear,340,2013-03-21 01:13:00
8:33 PM,8.6,-0.4,67,30.19,10.0,NNW,10.4,-,N/A,,Clear,340,2013-03-21 01:33:00
8:53 PM,6.8,-2.2,67,30.19,10.0,North,6.9,-,N/A,,Clear,350,2013-03-21 01:53:00
9:13 PM,6.8,-2.2,67,30.20,10.0,North,5.8,-,N/A,,Clear,350,2013-03-21 02:13:00
9:33 PM,6.8,-2.2,67,30.19,10.0,NNW,5.8,-,N/A,,Clear,330,2013-03-21 02:33:00
9:54 PM,5.0,-2.2,72,30.19,10.0,NNW,3.5,-,N/A,,Clear,340,2013-03-21 02:54:00
10:13 PM,5.0,-2.2,72,30.18,10.0,NNW,4.6,-,N/A,,Clear,340,2013-03-21 03:13:00
10:33 PM,3.2,-2.2,78,30.18,10.0,NNW,4.6,-,N/A,,Clear,340,2013-03-21 03:33:00
10:54 PM,3.2,-4.0,72,30.18,10.0,NNW,8.1,-,N/A,,Clear,340,2013-03-21 03:54:00
11:13 PM,3.2,-4.0,72,30.18,10.0,NNW,9.2,-,N/A,,Clear,340,2013-03-21 04:13:00
11:33 PM,1.4,-4.0,78,30.17,10.0,NNW,5.8,-,N/A,,Clear,340,2013-03-21 04:33:00
11:53 PM,1.4,-5.8,72,30.17,10.0,NNW,6.9,-,N/A,,Clear,340,2013-03-21 04:53:00